Regional Weather Roundup
Issued by NWS

Home | Current Version | Previous Version | Text Only | Print | Product List | Glossary On
Versions: 1 2 3 4 5 6 7 8 9 10 11 12 13 14 15 16 17 18 19 20 21 22 23 24 25 26 27 28 29 30 31 32 33 34 35 36 37 38 39 40 41 42 43 44 45 46 47 48 49 50
000
ASUS43 KTOP 260259
RWRKS

WEATHER ROUNDUP FOR KANSAS
NATIONAL WEATHER SERVICE GOODLAND KS
900 PM CST SUN JAN 25 2015

NOTE:  "FAIR" INDICATES FEW OR NO CLOUDS BELOW 12,000 FEET WITH NO
SIGNIFICANT WEATHER AND/OR OBSTRUCTIONS TO VISIBILITY.

KSZ001>006-013>018-027>032-041>047-260400-
NORTHWEST KANSAS

CITY           SKY/WX    TMP DP  RH WIND       PRES   REMARKS
GOODLAND       CLEAR     35  29  78 SW6       30.13S
HAYS           FAIR      28  16  59 CALM      30.11S
HILL CITY      CLEAR     28  18  66 W6        30.11R
RUSSELL        CLEAR     33  25  72 SE9       30.09F
$$

KSZ061>065-074>080-084>089-260400-
SOUTHWEST KANSAS

CITY           SKY/WX    TMP DP  RH WIND       PRES   REMARKS
DODGE CITY     CLEAR     32  18  56 CALM      30.13S
ELKHART          N/A     42  27  55 SW6         N/A
GARDEN CITY    CLEAR     38  21  50 CALM      30.14R
GREAT BEND     CLEAR     28  19  69 CALM      30.13S
LIBERAL        CLEAR     39  25  56 CALM      30.17S
$$

KSZ066>073-081>083-090>101-260400-
SOUTHEAST KANSAS

CITY           SKY/WX    TMP DP  RH WIND       PRES   REMARKS
CHANUTE        CLOUDY    40  32  73 N8        30.12S
COFFEYVILLE    PTCLDY    38  30  73 N9        30.13R
HUTCHINSON     CLEAR     33  26  75 CALM      30.12F
MEDICINE LODGE   N/A     36  25  64 N5        30.13S
NEWTON         CLEAR     34  25  69 N3        30.13F
PARSONS        MOCLDY    41  31  67 N7        30.13S
WICHITA INTL   CLEAR     38  28  67 N6        30.13F
WICHITA JABRA  CLEAR     34  28  79 N7        30.12F
WINFIELD       CLEAR     36  28  73 NE3       30.14S
$$

KSZ007>012-019>026-033>040-048>060-102>105-260400-
NORTHEAST KANSAS

CITY           SKY/WX    TMP DP  RH WIND       PRES   REMARKS
CONCORDIA      CLEAR     31  28  89 S5        30.10S
EMPORIA        CLOUDY    33  28  81 W6        30.12S
LAWRENCE       MOCLDY    30  27  88 NW3       30.11R
MANHATTAN      PTCLDY    34  28  79 CALM      30.12F
OLATHE IND     CLEAR     30  26  85 NW7       30.11R
OLATHE EXE     CLOUDY    37  30  75 N6        30.09R
SALINA         CLEAR     32  27  81 CALM      30.12F
TOPEKA BILLARD CLOUDY    39  28  64 NW8       30.12S
TOPEKA FORBES  CLOUDY    40  29  64 NW9       30.10S
$$


USA.gov is the U.S. government's official web portal to all federal, state and local government web resources and services.